AirNav   Air Wisconsin pilot careers
 
 999 users online  

7B9 Ellington Airport
Ellington, Connecticut, USA

GOING TO ELLINGTON?


FAA INFORMATION EFFECTIVE 13 SEPTEMBER 2018

Location

FAA Identifier: 7B9
Lat/Long: 41-55-31.5000N / 072-27-25.6000W
41-55.525000N / 072-27.426667W
41.9254167 / -72.4571111
(estimated)
Elevation: 253 ft. / 77 m (estimated)
Variation: 15W (1985)
From city: 2 miles N of ELLINGTON, CT
Time zone: UTC -4 (UTC -5 during Standard Time)
Zip code: 06029

Airport Operations

Airport use: Open to the public
Activation date: 04/1968
Control tower: no
ARTCC: BOSTON CENTER
FSS: BRIDGEPORT FLIGHT SERVICE STATION
NOTAMs facility: BDR (NOTAM-D service available)
Attendance: 0800-1800
Pattern altitude: 1253 ft. MSL
Wind indicator: lighted
Segmented circle: no
Lights: DUSK-2400. NSTD LIRL RY 01/19 OPERATES DUSK - 0000; AFTER 0000 FOR NSTD LIRL RY 01/19 CALL 860-871-2054.

Airport Communications

CTAF/UNICOM: 123.0
WX ASOS at BDL (10 nm W): PHONE 860-386-3480
WX ASOS at HFD (14 nm SW): PHONE 860-527-5837
WX ASOS at IJD (16 nm SE): 133.675 (860-456-8839)
WX ASOS at BAF (18 nm NW): 127.1 (413-568-2267)

Nearby radio navigation aids

VOR radial/distance  VOR name  Freq  Var
CEFr183/16.6WESTOVER VORTAC114.0014W
HFDr026/17.5HARTFORD VOR/DME114.9013W
BAFr155/18.3BARNES VORTAC113.0014W
PUTr280/27.4PUTNAM VOR/DME117.4014W
ORWr331/30.2NORWICH VOR/DME110.0014W
CTRr148/31.0CHESTER VOR/DME115.1013W
MADr029/38.2MADISON VOR/DME110.4013W

Airport Services

Fuel available: 100LL
Parking: hangars and tiedowns
Airframe service: MAJOR
Powerplant service: MAJOR

Runway Information

Runway 1/19

Dimensions: 1800 x 50 ft. / 549 x 15 m
Surface: asphalt, in fair condition
Weight bearing capacity: 
Single wheel: 9.0
Runway edge lights: non-standard
NSTD LIRL DUE TO SPACING.
Runway edge markings: RY 01/19 MARKINGS FADED.
RUNWAY 1  RUNWAY 19
Latitude: 41-55.377868N41-55.673293N
Longitude: 072-27.409568W072-27.442492W
Traffic pattern: leftleft
Runway heading: 010 magnetic, 355 true190 magnetic, 175 true
Markings: numbers only, in poor conditionnumbers only, in poor condition
Obstructions: 33 ft. trees, 440 ft. from runway, 60 ft. left of centerline, 7:1 slope to clear
RY 01 HAS +25 FT BRUSH 25 FT FM THLD; 93 FT LEFT; 8 FT SEASONAL CORN CROP 150 FT FM THLD ACROSS RY;+6FT BRUSH 52 FT FM THLD.
67 ft. trees, 1400 ft. from runway, 240 ft. left of centerline, 17:1 slope to clear

Airport Ownership and Management from official FAA records

Ownership: Privately-owned
Owner: J.L.M. ASSOC
73 SERGEANT ST
HOLYOKE, MA 01040
Phone 413-539-9861
Manager: LARRY DUROCHER
P.O. BOX 13
SOUTHWICK, MA 01077
Phone 860-614-1854

Airport Operational Statistics

Aircraft based on the field: 34
Single engine airplanes: 20
Helicopters: 8
Ultralights: 6
    
Aircraft operations: avg 74/day *
99% local general aviation
1% transient general aviation
<1% air taxi
* for 12-month period ending 31 March 2015

Additional Remarks

ATND 1300-2300Z. PAJA. EXTSV HEL TRNG OPS. ACFT TFC PAT ON E SIDE OF ARPT ONLY (1250' MSL). HEL TFC PAT ON W SIDE OF ARPT ONLY (1000' MSL).
NON-STD THR LGTS.
HANGARS EAST OF RUNWAY PENETRATE PART 77 SURFACES (7:1 SIDE SLOPES) RWY 19 APPROACH END
FOR CD CTC YANKEE APCH AT 860-386-3597

Instrument Procedures

There are no published instrument procedures at 7B9.

Some nearby airports with instrument procedures:

KBDL - Bradley International Airport (10 nm W)
KHFD - Hartford-Brainard Airport (14 nm SW)
KIJD - Windham Airport (16 nm SE)
KCEF - Westover Air Reserve Base/Metropolitan Airport (16 nm N)
KBAF - Westfield-Barnes Regional Airport (18 nm NW)
 
Loc | Ops | Rwys | IFR | FBO | Links
Com | Nav | Svcs | Stats | Notes

Silver City Flying Club
 
Area around 7B9 (Ellington Airport)
 
Road maps at: MapQuest Bing Google
 
Aerial photo
WARNING: Photo may not be current or correct
Aerial photo of 7B9 (Ellington Airport)
Photo by David Gerstein
Photo taken 25-Nov-2017
looking north.

Do you have a better or more recent aerial photo of Ellington Airport that you would like to share? If so, please send us your photo.

 
Sectional chart

 
Airport distance calculator
Flying to Ellington Airport? Find the distance to fly.

From to 7B9

Sunrise and sunset
Times for 22-Sep-2018
 Local
(UTC-4)
 Zulu
(UTC)
Morning civil twilight06:1010:10
Sunrise06:3810:38
Sunset18:4722:47
Evening civil twilight19:1523:15

Current date and time
Zulu (UTC)  22-Sep-2018 14:04:10
Local (UTC-4)  22-Sep-2018 10:04:10
 
METAR
KBDL 
10nm W 
221351Z VRB04KT 10SM FEW037 BKN250 17/10 A3010 RMK AO2 SLP193 T01720100
KHFD 
14nm SW 
221353Z 32008G17KT 10SM CLR 18/09 A3010 RMK AO2 SLP191 T01830094
KIJD 
16nm SE 
221352Z AUTO 31009KT 10SM CLR 18/11 A3008 RMK AO2 PK WND 35028/1318 SLP186 T01830106
KCEF 
17nm N 
221356Z 34009KT 10SM FEW038 SCT150 BKN200 17/10 A3008 RMK AO2A SLP191 T01740098
KBAF 
19nm NW 
221353Z 33014KT 10SM CLR 17/09 A3009 RMK AO2 SLP187 T01720094
TAF
KBDL 
10nm W 
221140Z 2212/2318 32012G20KT P6SM FEW040 SCT250 FM221400 34010G18KT P6SM FEW250 FM221800 36008KT P6SM SCT250 FM230000 36004KT P6SM SCT200 FM230400 00000KT P6SM SCT250 FM230700 35003KT P6SM SCT250
KCEF 
17nm N 
221000Z 2210/2316 33012G18KT 9999 SCT010 SCT040 520103 QNH2993INS TEMPO 2210/2214 33015G25KT 520004 BECMG 2222/2223 34006KT 9999 SCT250 QNH2988INS WND VRB06KT AFT 2306 BECMG 2315/2316 26009KT 9999 SKC QNH3008INS TX20/2218Z TN16/2210Z
KBAF 
19nm NW 
221140Z 2212/2312 03004KT P6SM FEW250 FM221600 35010KT P6SM FEW250 FM230100 00000KT P6SM SCT250 FM230800 33003KT P6SM SCT250
NOTAMs
Click for the latest NOTAMs
NOTAMs are issued by the DoD/FAA and will open in a separate window not controlled by AirNav.

 

 
 

FBO, Fuel Providers, and Aircraft Ground Support

  
 Business Name 
 
 Contact 
 
 Services / Description 
 
Fuel Prices
 
Comments
  
Northeast Helicopters 860-871-2054
no information available

If you are affiliated with Northeast Helicopters and would like to show here your services, contact info, web link, logo, and more, click here
100LL
SS $5.90 
 Updated 12-Sep-2018
 
   write
SS=Self service
Update Fuel Prices
 

Would you like to see your business listed on this page?

 If your business provides an interesting product or service to pilots, flight crews, aircraft, or users of the Ellington Airport, you should consider listing it here.  To start the listing process, click on the button below
 
Add a business
 

Other Pages about Ellington Airport

www.ellingtonairport.com
 
Update a link
 
Copyright © AirNav, LLC. All rights reserved. Privacy Policy  Contact